Time,TemperatureF,DewpointF,PressureIn,WindDirection,WindDirectionDegrees,WindSpeedMPH,WindSpeedGustMPH,Humidity,HourlyPrecipIn,Conditions,Clouds,dailyrainin,SolarRadiationWatts/m^2,SoftwareType,DateUTC
2013-05-23 00:32:00,38.0,18.0,-100.00,South,189,7.0,17.0,44,0.00,,,0.66,5.000000,,2013-05-23 07:32:00,
2013-05-23 01:32:00,38.0,19.0,-100.00,SSW,198,6.0,15.0,45,0.00,,,0.65,5.000000,,2013-05-23 08:32:00,
2013-05-23 02:33:00,38.0,19.0,-100.00,South,191,6.0,12.0,45,0.01,,,0.62,5.000000,,2013-05-23 09:33:00,
2013-05-23 03:32:00,39.0,19.0,-100.00,SSW,194,6.0,16.0,45,0.00,,,-99.99,5.000000,,2013-05-23 10:32:00,
2013-05-23 04:32:00,39.0,19.0,-100.00,SSW,193,7.0,12.0,45,0.00,,,0.59,5.000000,,2013-05-23 11:32:00,
2013-05-23 05:32:00,39.0,19.0,-100.00,SSW,194,6.0,12.0,45,0.00,,,0.59,5.000000,,2013-05-23 12:32:00,
2013-05-23 06:32:00,39.0,19.0,-100.00,SSW,198,4.0,9.0,45,0.00,,,-99.99,7.000000,,2013-05-23 13:32:00,
2013-05-23 07:32:00,39.0,20.0,-100.00,South,190,5.0,10.0,46,0.00,,,0.59,99.000000,,2013-05-23 14:32:00,
2013-05-23 08:33:00,40.0,20.0,-100.00,SSW,193,6.0,11.0,44,0.00,,,0.59,193.000000,,2013-05-23 15:33:00,
2013-05-23 09:34:00,45.0,41.0,-100.00,South,191,7.0,12.0,86,0.00,,,0.59,350.000000,,2013-05-23 16:34:00,
2013-05-23 09:43:00,45.0,41.0,-100.00,South,191,7.0,12.0,86,0.00,,,0.59,350.000000,,2013-05-23 16:43:00,
2013-05-23 09:52:00,45.0,41.0,-100.00,South,191,7.0,12.0,86,0.00,,,0.59,350.000000,,2013-05-23 16:52:00,
2013-05-23 10:02:00,45.0,41.0,-100.00,South,191,7.0,12.0,86,0.00,,,0.59,350.000000,,2013-05-23 17:02:00,
2013-05-23 10:11:00,45.0,41.0,-100.00,South,191,7.0,12.0,86,0.00,,,0.59,350.000000,,2013-05-23 17:11:00,
2013-05-23 10:33:00,47.0,42.0,-100.00,South,183,6.0,13.0,84,0.00,,,0.58,507.000000,,2013-05-23 17:33:00,
2013-05-23 10:43:00,47.0,42.0,-100.00,South,183,6.0,13.0,84,0.00,,,0.58,507.000000,,2013-05-23 17:43:00,
2013-05-23 10:52:00,47.0,42.0,-100.00,South,183,6.0,13.0,84,0.00,,,0.58,507.000000,,2013-05-23 17:52:00,
2013-05-23 11:01:00,47.0,42.0,-100.00,South,183,6.0,13.0,84,0.00,,,0.58,507.000000,,2013-05-23 18:01:00,
2013-05-23 11:11:00,47.0,42.0,-100.00,South,183,6.0,13.0,84,0.00,,,0.58,507.000000,,2013-05-23 18:11:00,
2013-05-23 11:32:00,49.0,27.0,-100.00,South,189,5.0,11.0,42,0.00,,,0.46,662.000000,,2013-05-23 18:32:00,
2013-05-23 12:32:00,48.0,25.0,-100.00,SSW,210,4.0,11.0,40,0.00,,,0.29,498.000000,,2013-05-23 19:32:00,
2013-05-23 13:32:00,50.0,21.0,-100.00,South,188,5.0,11.0,32,0.00,,,0.15,567.000000,,2013-05-23 20:32:00,
2013-05-23 14:33:00,51.0,16.0,-100.00,South,190,6.0,16.0,24,0.00,,,0.12,476.000000,,2013-05-23 21:33:00,
2013-05-23 15:33:00,51.0,21.0,-100.00,South,190,5.0,16.0,30,0.00,,,0.11,483.000000,,2013-05-23 22:33:00,
2013-05-23 16:32:00,50.0,17.0,-100.00,SSW,204,3.0,14.0,27,0.00,,,0.11,511.000000,,2013-05-23 23:32:00,
2013-05-23 17:32:00,45.0,42.0,-100.00,SSW,211,5.0,16.0,88,0.03,,,-99.99,125.000000,,2013-05-24 00:32:00,
2013-05-23 17:42:00,45.0,42.0,-100.00,SSW,211,5.0,16.0,88,0.03,,,-99.99,125.000000,,2013-05-24 00:42:00,
2013-05-23 17:52:00,45.0,42.0,-100.00,SSW,211,5.0,16.0,88,0.03,,,-99.99,125.000000,,2013-05-24 00:52:00,
2013-05-23 18:01:00,45.0,42.0,-100.00,SSW,211,5.0,16.0,88,0.03,,,-99.99,125.000000,,2013-05-24 01:01:00,
2013-05-23 18:12:00,45.0,42.0,-100.00,SSW,211,5.0,16.0,88,0.03,,,-99.99,125.000000,,2013-05-24 01:12:00,
2013-05-23 18:32:00,43.0,41.0,-100.00,South,191,4.0,16.0,92,0.03,,,0.14,122.000000,,2013-05-24 01:32:00,
2013-05-23 18:42:00,43.0,41.0,-100.00,South,191,4.0,16.0,92,0.03,,,0.14,122.000000,,2013-05-24 01:42:00,
2013-05-23 18:52:00,43.0,41.0,-100.00,South,191,4.0,16.0,92,0.03,,,0.14,122.000000,,2013-05-24 01:52:00,
2013-05-23 19:01:00,43.0,41.0,-100.00,South,191,4.0,16.0,92,0.03,,,0.14,122.000000,,2013-05-24 02:01:00,
2013-05-23 19:11:00,43.0,41.0,-100.00,South,191,4.0,16.0,92,0.03,,,0.14,122.000000,,2013-05-24 02:11:00,
2013-05-23 19:32:00,42.0,38.0,-100.00,SSW,199,5.0,10.0,85,0.05,,,0.16,55.000000,,2013-05-24 02:32:00,
2013-05-23 19:42:00,42.0,38.0,-100.00,SSW,199,5.0,10.0,85,0.05,,,0.16,55.000000,,2013-05-24 02:42:00,
2013-05-23 19:52:00,42.0,38.0,-100.00,SSW,199,5.0,10.0,85,0.05,,,0.16,55.000000,,2013-05-24 02:52:00,
2013-05-23 20:02:00,42.0,38.0,-100.00,SSW,199,5.0,10.0,85,0.05,,,0.16,55.000000,,2013-05-24 03:02:00,
2013-05-23 20:11:00,42.0,38.0,-100.00,SSW,199,5.0,10.0,85,0.05,,,0.16,55.000000,,2013-05-24 03:11:00,
2013-05-23 20:33:00,42.0,29.0,-100.00,SSW,192,5.0,11.0,60,0.05,,,0.20,18.000000,,2013-05-24 03:33:00,
2013-05-23 21:33:00,42.0,24.0,-100.00,South,190,5.0,10.0,48,0.01,,,-99.99,7.000000,,2013-05-24 04:33:00,
2013-05-23 22:32:00,42.0,23.0,-100.00,SSW,193,7.0,12.0,46,0.01,,,0.19,6.000000,,2013-05-24 05:32:00,
2013-05-23 23:32:00,43.0,24.0,-100.00,SSW,200,4.0,12.0,46,0.08,,,0.27,6.000000,,2013-05-24 06:32:00,